Location: *
(50.3440°N, 18.6237°E)
Time: 16:37:38
(UTC+00:00)

USA 238 DEB - Pass Details

Date: 30 November 2020
Orbit: 997 x 1215 km, 63.4° (Epoch: 11 January)

Event Time Altitude Azimuth Distance (km) Brightness Sun altitude
Rises 17:47:36 0° 210° (SSW) 3,724 6.9 -28.2°
Reaches altitude 10° 17:50:09 10° 208° (SSW) 2,793 6.2 -28.6°
Enters shadow 17:55:56 63° 163° (SSE) 1,154 3.7 -29.5°
